Tracking 28096 objects as of 28-Sep-2023
HD Live streaming from Space Station
objects crossing your sky now

STARLINK-2121

Track STARLINK-2121 now!
10-day predictions
STARLINK-2121 is classified as:


NORAD ID: 47399
Int'l Code: 2021-005BC
Perigee: 553.2 km
Apogee: 555.5 km
Inclination: 53.1 °
Period: 95.6 minutes
Semi major axis: 6925 km
RCS: Unknown
Launch date: January 20, 2021
Source: United States (US)
Launch site: AIR FORCE EASTERN TEST RANGE (AFETR)
Your satellite tracking list
Your tracking list is empty




NASA's NSSDC Master Catalog

Two Line Element Set (TLE):
1 47399U 21005BC  23270.79514471  .00012783  00000-0  87547-3 0  9997
2 47399  53.0533  94.7091 0001615  78.0024 282.1146 15.06402335148586
Source of the keplerian elements: AFSPC